Time,TemperatureF,DewpointF,PressureIn,WindDirection,WindDirectionDegrees,WindSpeedMPH,WindSpeedGustMPH,Humidity,HourlyPrecipIn,Conditions,Clouds,dailyrainin,SoftwareType,DateUTC
2013-01-12 00:07:00,41.2,40.0,30.25,ESE,104,4.0,9.0,97,0.01,,,0.00,weatherlink.com 1.10,2013-01-12 05:07:00,
2013-01-12 00:22:00,41.3,41.0,30.24,ENE,70,4.0,11.0,97,0.01,,,0.00,weatherlink.com 1.10,2013-01-12 05:22:00,
2013-01-12 00:37:00,41.4,41.0,30.24,SE,132,4.0,9.0,97,0.00,,,0.00,weatherlink.com 1.10,2013-01-12 05:37:00,
2013-01-12 00:52:00,41.2,40.0,30.23,ESE,111,4.0,8.0,97,0.00,,,0.00,weatherlink.com 1.10,2013-01-12 05:52:00,
2013-01-12 01:07:00,41.2,40.0,30.23,East,87,2.0,9.0,97,0.00,,,0.00,weatherlink.com 1.10,2013-01-12 06:07:00,
2013-01-12 01:22:00,41.1,40.0,30.24,ENE,78,5.0,8.0,97,0.01,,,0.01,weatherlink.com 1.10,2013-01-12 06:22:00,
2013-01-12 01:37:00,40.7,40.0,30.24,ENE,75,3.0,7.0,97,0.02,,,0.02,weatherlink.com 1.10,2013-01-12 06:37:00,
2013-01-12 01:52:00,40.2,39.0,30.23,ENE,65,3.0,8.0,97,0.02,,,0.02,weatherlink.com 1.10,2013-01-12 06:52:00,
2013-01-12 02:07:00,40.0,39.0,30.22,East,81,3.0,7.0,97,0.03,,,0.03,weatherlink.com 1.10,2013-01-12 07:07:00,
2013-01-12 02:22:00,40.1,39.0,30.22,ESE,103,5.0,11.0,97,0.02,,,0.03,weatherlink.com 1.10,2013-01-12 07:22:00,
2013-01-12 02:37:00,39.9,39.0,30.22,East,97,5.0,9.0,97,0.01,,,0.03,weatherlink.com 1.10,2013-01-12 07:37:00,
2013-01-12 02:52:00,40.0,40.0,30.22,ENE,78,2.0,10.0,98,0.01,,,0.03,weatherlink.com 1.10,2013-01-12 07:52:00,
2013-01-12 03:07:00,40.0,40.0,30.21,East,85,2.0,9.0,98,0.00,,,0.03,weatherlink.com 1.10,2013-01-12 08:07:00,
2013-01-12 03:22:00,39.9,39.0,30.20,East,81,6.0,9.0,97,0.00,,,0.03,weatherlink.com 1.10,2013-01-12 08:22:00,
2013-01-12 03:37:00,39.7,39.0,30.19,East,90,3.0,9.0,97,0.00,,,0.03,weatherlink.com 1.10,2013-01-12 08:37:00,
2013-01-12 03:52:00,39.7,39.0,30.19,ENE,71,3.0,11.0,97,0.00,,,0.03,weatherlink.com 1.10,2013-01-12 08:52:00,
2013-01-12 04:07:00,39.7,39.0,30.18,ENE,73,7.0,10.0,97,0.00,,,0.03,weatherlink.com 1.10,2013-01-12 09:07:00,
2013-01-12 04:22:00,39.7,39.0,30.18,East,80,5.0,8.0,97,0.00,,,0.03,weatherlink.com 1.10,2013-01-12 09:22:00,
2013-01-12 04:37:00,39.6,39.0,30.18,ENE,73,4.0,9.0,97,0.00,,,0.03,weatherlink.com 1.10,2013-01-12 09:37:00,
2013-01-12 04:52:00,39.6,39.0,30.18,ENE,73,1.0,9.0,97,0.00,,,0.03,weatherlink.com 1.10,2013-01-12 09:52:00,
2013-01-12 05:07:00,39.7,39.0,30.18,ENE,65,8.0,9.0,97,0.00,,,0.03,weatherlink.com 1.10,2013-01-12 10:07:00,
2013-01-12 05:22:00,39.5,39.0,30.18,ENE,67,4.0,9.0,97,0.00,,,0.03,weatherlink.com 1.10,2013-01-12 10:22:00,
2013-01-12 05:37:00,39.5,39.0,30.19,ENE,60,7.0,11.0,97,0.01,,,0.04,weatherlink.com 1.10,2013-01-12 10:37:00,
2013-01-12 05:53:00,39.5,39.0,30.19,ENE,72,7.0,10.0,98,0.01,,,0.04,weatherlink.com 1.10,2013-01-12 10:53:00,
2013-01-12 06:08:00,39.5,39.0,30.19,East,80,9.0,11.0,98,0.01,,,0.04,weatherlink.com 1.10,2013-01-12 11:08:00,
2013-01-12 06:23:00,39.5,39.0,30.18,ENE,68,5.0,12.0,98,0.01,,,0.04,weatherlink.com 1.10,2013-01-12 11:23:00,
2013-01-12 06:38:00,39.5,39.0,30.16,ENE,66,9.0,14.0,98,0.00,,,0.04,weatherlink.com 1.10,2013-01-12 11:38:00,
2013-01-12 06:53:00,39.5,39.0,30.18,ENE,70,7.0,12.0,98,0.00,,,0.04,weatherlink.com 1.10,2013-01-12 11:53:00,
2013-01-12 07:08:00,39.5,39.0,30.18,ENE,74,5.0,10.0,98,0.00,,,0.04,weatherlink.com 1.10,2013-01-12 12:08:00,
2013-01-12 07:23:00,39.5,39.0,30.18,ENE,69,4.0,11.0,98,0.00,,,0.04,weatherlink.com 1.10,2013-01-12 12:23:00,
2013-01-12 07:38:00,39.6,39.0,30.20,NNE,30,5.0,9.0,98,0.00,,,0.04,weatherlink.com 1.10,2013-01-12 12:38:00,
2013-01-12 07:53:00,39.5,39.0,30.20,NE,55,4.0,8.0,98,0.00,,,0.04,weatherlink.com 1.10,2013-01-12 12:53:00,
2013-01-12 08:08:00,39.7,39.0,30.20,NE,44,4.0,7.0,98,0.00,,,0.04,weatherlink.com 1.10,2013-01-12 13:08:00,
2013-01-12 08:23:00,39.9,39.0,30.21,NE,40,0.0,5.0,98,0.00,,,0.04,weatherlink.com 1.10,2013-01-12 13:23:00,
2013-01-12 08:38:00,40.0,40.0,30.20,NNE,33,5.0,7.0,98,0.00,,,0.04,weatherlink.com 1.10,2013-01-12 13:38:00,
2013-01-12 08:53:00,40.2,40.0,30.20,NE,46,0.0,7.0,98,0.00,,,0.04,weatherlink.com 1.10,2013-01-12 13:53:00,
2013-01-12 09:08:00,40.4,40.0,30.22,NE,38,2.0,5.0,98,0.00,,,0.04,weatherlink.com 1.10,2013-01-12 14:08:00,
2013-01-12 09:23:00,40.6,40.0,30.21,NE,47,3.0,6.0,98,0.00,,,0.04,weatherlink.com 1.10,2013-01-12 14:23:00,
2013-01-12 09:38:00,41.0,41.0,30.21,NE,36,3.0,7.0,98,0.01,,,0.05,weatherlink.com 1.10,2013-01-12 14:38:00,
2013-01-12 09:53:00,41.2,41.0,30.21,NE,55,2.0,5.0,98,0.01,,,0.05,weatherlink.com 1.10,2013-01-12 14:53:00,
2013-01-12 10:08:00,41.6,41.0,30.21,NE,52,6.0,8.0,98,0.02,,,0.06,weatherlink.com 1.10,2013-01-12 15:08:00,
2013-01-12 10:23:00,41.8,41.0,30.21,ENE,69,7.0,7.0,98,0.02,,,0.06,weatherlink.com 1.10,2013-01-12 15:23:00,
2013-01-12 10:38:00,42.0,42.0,30.20,NE,48,5.0,9.0,98,0.01,,,0.06,weatherlink.com 1.10,2013-01-12 15:38:00,
2013-01-12 10:53:00,42.2,42.0,30.20,ENE,74,7.0,11.0,98,0.01,,,0.06,weatherlink.com 1.10,2013-01-12 15:53:00,
2013-01-12 11:08:00,42.5,42.0,30.19,ENE,74,7.0,10.0,98,0.00,,,0.06,weatherlink.com 1.10,2013-01-12 16:08:00,
2013-01-12 11:23:00,42.3,42.0,30.20,ENE,64,5.0,9.0,98,0.00,,,0.06,weatherlink.com 1.10,2013-01-12 16:23:00,
2013-01-12 11:38:00,42.4,42.0,30.18,ENE,67,7.0,11.0,98,0.00,,,0.06,weatherlink.com 1.10,2013-01-12 16:38:00,
2013-01-12 11:53:00,42.4,42.0,30.18,East,88,7.0,10.0,98,0.00,,,0.06,weatherlink.com 1.10,2013-01-12 16:53:00,
2013-01-12 12:08:00,42.3,42.0,30.18,ENE,70,9.0,11.0,98,0.00,,,0.06,weatherlink.com 1.10,2013-01-12 17:08:00,
2013-01-12 12:23:00,42.6,42.0,30.16,ENE,67,9.0,12.0,98,0.00,,,0.06,weatherlink.com 1.10,2013-01-12 17:23:00,
2013-01-12 12:38:00,42.8,42.0,30.16,ENE,76,4.0,11.0,98,0.00,,,0.06,weatherlink.com 1.10,2013-01-12 17:38:00,
2013-01-12 12:53:00,42.9,42.0,30.16,ENE,65,8.0,11.0,98,0.00,,,0.06,weatherlink.com 1.10,2013-01-12 17:53:00,
2013-01-12 13:08:00,43.2,43.0,30.14,ENE,75,4.0,12.0,98,0.00,,,0.06,weatherlink.com 1.10,2013-01-12 18:08:00,
2013-01-12 13:23:00,42.9,42.0,30.16,NE,42,5.0,10.0,98,0.00,,,0.06,weatherlink.com 1.10,2013-01-12 18:23:00,
2013-01-12 13:38:00,43.2,43.0,30.18,ENE,57,2.0,8.0,98,0.00,,,0.06,weatherlink.com 1.10,2013-01-12 18:38:00,
2013-01-12 13:53:00,43.3,43.0,30.18,ENE,63,5.0,8.0,98,0.00,,,0.06,weatherlink.com 1.10,2013-01-12 18:53:00,
2013-01-12 14:08:00,43.1,43.0,30.19,East,85,3.0,9.0,98,0.00,,,0.06,weatherlink.com 1.10,2013-01-12 19:08:00,
2013-01-12 14:23:00,43.3,43.0,30.19,ENE,69,2.0,5.0,98,0.00,,,0.06,weatherlink.com 1.10,2013-01-12 19:23:00,
2013-01-12 14:38:00,43.4,43.0,30.20,NE,41,5.0,8.0,98,0.00,,,0.06,weatherlink.com 1.10,2013-01-12 19:38:00,
2013-01-12 14:53:00,43.3,43.0,30.20,ENE,61,3.0,7.0,98,0.00,,,0.06,weatherlink.com 1.10,2013-01-12 19:53:00,
2013-01-12 15:08:00,43.0,43.0,30.20,ENE,63,2.0,8.0,98,0.00,,,0.06,weatherlink.com 1.10,2013-01-12 20:08:00,
2013-01-12 15:23:00,43.0,43.0,30.21,NE,49,3.0,8.0,98,0.00,,,0.06,weatherlink.com 1.10,2013-01-12 20:23:00,
2013-01-12 15:38:00,42.9,42.0,30.21,ENE,61,5.0,7.0,98,0.00,,,0.06,weatherlink.com 1.10,2013-01-12 20:38:00,
2013-01-12 15:53:00,42.6,42.0,30.19,ENE,74,3.0,9.0,98,0.00,,,0.06,weatherlink.com 1.10,2013-01-12 20:53:00,
2013-01-12 16:08:00,42.3,42.0,30.19,ENE,66,5.0,11.0,98,0.00,,,0.06,weatherlink.com 1.10,2013-01-12 21:08:00,
2013-01-12 16:23:00,41.9,41.0,30.19,NE,39,7.0,10.0,98,0.00,,,0.06,weatherlink.com 1.10,2013-01-12 21:23:00,
2013-01-12 16:38:00,41.7,41.0,30.19,ENE,59,3.0,9.0,98,0.00,,,0.06,weatherlink.com 1.10,2013-01-12 21:38:00,
2013-01-12 16:53:00,42.0,42.0,30.19,NE,44,3.0,7.0,98,0.00,,,0.06,weatherlink.com 1.10,2013-01-12 21:53:00,
2013-01-12 17:08:00,42.2,42.0,30.19,ENE,71,2.0,4.0,98,0.00,,,0.06,weatherlink.com 1.10,2013-01-12 22:08:00,
2013-01-12 17:23:00,42.2,42.0,30.19,ENE,67,0.0,4.0,98,0.00,,,0.06,weatherlink.com 1.10,2013-01-12 22:23:00,
2013-01-12 17:38:00,42.3,42.0,30.19,ENE,74,2.0,4.0,98,0.00,,,0.06,weatherlink.com 1.10,2013-01-12 22:38:00,
2013-01-12 17:53:00,42.5,42.0,30.19,ENE,69,0.0,3.0,98,0.00,,,0.06,weatherlink.com 1.10,2013-01-12 22:53:00,
2013-01-12 18:08:00,42.7,42.0,30.20,ENE,69,0.0,3.0,98,0.00,,,0.06,weatherlink.com 1.10,2013-01-12 23:08:00,
2013-01-12 18:23:00,42.8,42.0,30.20,NNE,27,1.0,3.0,98,0.00,,,0.06,weatherlink.com 1.10,2013-01-12 23:23:00,
2013-01-12 18:38:00,43.1,43.0,30.19,NNE,12,0.0,5.0,98,0.00,,,0.06,weatherlink.com 1.10,2013-01-12 23:38:00,
2013-01-12 18:53:00,43.2,43.0,30.20,NNW,336,0.0,4.0,98,0.00,,,0.06,weatherlink.com 1.10,2013-01-12 23:53:00,
2013-01-12 19:08:00,43.2,43.0,30.20,NNW,336,0.0,0.0,99,0.01,,,0.07,weatherlink.com 1.10,2013-01-13 00:08:00,
2013-01-12 19:23:00,43.2,43.0,30.19,NNW,336,0.0,0.0,99,0.01,,,0.07,weatherlink.com 1.10,2013-01-13 00:23:00,
2013-01-12 19:38:00,43.2,43.0,30.19,NNW,336,0.0,0.0,99,0.01,,,0.07,weatherlink.com 1.10,2013-01-13 00:38:00,
2013-01-12 19:53:00,43.2,43.0,30.18,NNW,336,0.0,0.0,99,0.01,,,0.07,weatherlink.com 1.10,2013-01-13 00:53:00,
2013-01-12 20:08:00,43.1,43.0,30.18,NNW,336,0.0,0.0,98,0.00,,,0.07,weatherlink.com 1.10,2013-01-13 01:08:00,
2013-01-12 20:23:00,43.0,43.0,30.18,NNW,336,0.0,0.0,98,0.00,,,0.07,weatherlink.com 1.10,2013-01-13 01:23:00,
2013-01-12 20:38:00,43.0,43.0,30.18,NNW,336,0.0,0.0,98,0.00,,,0.07,weatherlink.com 1.10,2013-01-13 01:38:00,
2013-01-12 20:53:00,43.0,43.0,30.17,NNW,336,0.0,0.0,98,0.01,,,0.08,weatherlink.com 1.10,2013-01-13 01:53:00,
2013-01-12 21:08:00,42.7,43.0,30.18,NNW,336,0.0,0.0,99,0.01,,,0.08,weatherlink.com 1.10,2013-01-13 02:08:00,
2013-01-12 21:24:00,42.7,43.0,30.18,NNW,336,0.0,0.0,99,0.01,,,0.08,weatherlink.com 1.10,2013-01-13 02:24:00,
2013-01-12 21:39:00,42.9,43.0,30.19,NNW,336,0.0,0.0,99,0.01,,,0.08,weatherlink.com 1.10,2013-01-13 02:39:00,
2013-01-12 21:54:00,42.9,43.0,30.19,NNW,336,0.0,0.0,99,0.00,,,0.08,weatherlink.com 1.10,2013-01-13 02:54:00,
2013-01-12 22:09:00,42.9,43.0,30.18,NNW,336,0.0,0.0,99,0.00,,,0.08,weatherlink.com 1.10,2013-01-13 03:09:00,
2013-01-12 22:24:00,42.9,43.0,30.18,NNW,336,0.0,0.0,99,0.00,,,0.08,weatherlink.com 1.10,2013-01-13 03:24:00,
2013-01-12 22:39:00,42.8,43.0,30.18,NNW,336,0.0,0.0,99,0.00,,,0.08,weatherlink.com 1.10,2013-01-13 03:39:00,
2013-01-12 22:54:00,42.8,43.0,30.18,NNW,336,0.0,0.0,99,0.00,,,0.08,weatherlink.com 1.10,2013-01-13 03:54:00,
2013-01-12 23:09:00,42.7,43.0,30.17,NNW,336,0.0,0.0,99,0.00,,,0.08,weatherlink.com 1.10,2013-01-13 04:09:00,
2013-01-12 23:24:00,42.7,43.0,30.17,ESE,104,0.0,0.0,99,0.00,,,0.08,weatherlink.com 1.10,2013-01-13 04:24:00,
2013-01-12 23:39:00,42.5,42.0,30.17,ESE,103,0.0,0.0,99,0.00,,,0.08,weatherlink.com 1.10,2013-01-13 04:39:00,
2013-01-12 23:54:00,42.4,42.0,30.17,ESE,104,0.0,0.0,99,0.00,,,0.08,weatherlink.com 1.10,2013-01-13 04:54:00,